[[{"header":{"parameterUnit":"m.s-1","parameterCategory":1,"la1":30.2991,"la2":30.254,"lo1":-89.0895,"lo2":-89.0444,"dy":0.0017,"dx":0.0017,"nx":28,"ny":28,"refTime":"2024-05-21T21:00:00:Z","depth":0,"parameterNumber":2,"parameterNumberName":"U-component_of_WINDS"},"data":[0,0,0,0,0,0,0,0,0,0,0,0,0,0,0,0,0,0,0,0,0,0,0,0,0,0,0,0,0,0,0,0,0,0,0,0,0,0,0,0,0,0,0,0,0,0,0,0,0,0,0,0,0,0,0,0,0,0,-1.9135,-1.9136,0,-1.9213,-1.9214,-1.9215,-1.9223,-1.9222,-1.9221,-1.9221,-1.9301,-1.9303,-1.9306,0,0,0,0,0,0,0,0,0,0,0,0,0,-1.8993,-1.8996,-1.9135,-1.9136,-1.9137,-1.9213,-1.9214,-1.9215,-1.9223,-1.9222,-1.9221,-1.922,-1.93,-1.9303,-1.9307,0,0,0,0,0,0,0,0,0,0,0,0,0,-1.9061,-1.8997,-1.9135,-1.915,-1.9152,-1.9213,-1.9214,-1.9215,-1.9223,-1.9222,-1.9221,-1.922,-1.9299,-1.9303,-1.9307,-1.9358,0,0,-1.932,-1.9322,0,0,0,0,0,0,0,0,-1.9058,-1.9067,-1.9147,-1.9149,-1.9152,-1.9207,-1.9193,-1.9263,-1.9224,-1.9196,-1.9221,-1.9219,-1.927,-1.9277,-1.9294,-1.9361,-1.9365,-1.9321,-1.9323,-1.9325,-1.9326,0,0,0,0,0,0,0,-1.9053,-1.9063,-1.9166,-1.9148,-1.9151,-1.9153,-1.9162,-1.9207,-1.9239,-1.9199,-1.9199,-1.9209,-1.9272,-1.929,-1.9296,-1.9366,-1.932,-1.9324,-1.9327,-1.9329,-1.948,-1.9481,0,0,0,0,0,0,-1.9045,-1.9059,-1.9163,-1.9168,-1.9101,-1.9157,-1.9166,-1.919,-1.9239,-1.9245,-1.9209,-1.9209,-1.9283,-1.9291,-1.9299,-1.9362,-1.9325,-1.9329,-1.9332,-1.9478,-1.948,-1.9481,0,0,0,0,0,0,-1.9042,-1.9054,-1.916,-1.9114,-1.9128,-1.916,-1.9188,-1.9193,-1.9211,-1.9247,-1.9253,-1.9222,-1.9283,-1.9293,-1.9343,-1.9365,-1.9331,-1.9335,-1.9477,-1.9479,-1.9481,-1.9488,0,0,0,0,0,0,-1.9038,-1.9053,-1.9073,-1.9114,-1.913,-1.9203,-1.9189,-1.9195,-1.9219,-1.9218,-1.9261,-1.9267,-1.9283,-1.9337,-1.9348,-1.937,-1.9338,-1.9475,-1.9478,-1.948,-1.9486,-1.949,-1.9494,0,0,0,0,0,-1.9033,-1.9071,-1.9074,-1.9086,-1.9155,-1.9204,-1.9213,-1.9231,-1.922,-1.924,-1.9263,-1.9265,-1.9361,-1.9342,-1.9354,-1.9378,-1.9473,-1.9477,-1.948,-1.9484,-1.9489,-1.9494,0,0,0,0,0,0,-1.9031,-1.9077,-1.908,-1.9133,-1.9165,-1.9205,-1.9231,-1.9235,-1.9271,-1.9269,-1.9289,-1.9299,-1.9348,-1.9368,-1.9346,-1.943,-1.9416,-1.9422,-1.9415,-1.942,-1.9424,-1.9418,-1.9342,0,0,0,0,0,-1.9037,-1.9073,-1.9111,-1.9154,-1.917,-1.9198,-1.922,-1.9231,-1.9264,-1.9278,-1.9304,-1.9337,-1.9374,-1.9399,-1.9435,-1.9489,-1.9499,-1.9512,-1.9516,-1.9519,-1.9523,-1.9554,-1.956,-1.9492,-1.9492,-1.9492,0,0,-1.9049,-1.9079,-1.91,-1.9155,-1.918,-1.9217,-1.9209,-1.9248,-1.9276,-1.9284,-1.9333,-1.9354,-1.9391,-1.9444,-1.9468,-1.9462,-1.9545,-1.9523,-1.9525,-1.9528,-1.9558,-1.9564,-1.957,-1.9494,-1.9494,-1.9493,0,0,-1.909,-1.9116,-1.9155,-1.9181,-1.9221,-1.9239,-1.9248,-1.9289,-1.9303,-1.9353,-1.9359,-1.9393,-1.9457,-1.9484,-1.9506,-1.9558,-1.9561,-1.9569,-1.9589,-1.9619,-1.9624,-1.9629,-1.9648,-1.9655,-1.9574,-1.9574,-1.9574,0,-1.91,-1.9156,-1.9175,-1.9214,-1.9238,-1.9247,-1.9287,-1.9312,-1.9361,-1.9377,-1.937,-1.9451,-1.9477,-1.9536,-1.9549,-1.9566,-1.9578,-1.9564,-1.9622,-1.9627,-1.9632,-1.965,-1.9657,-1.9575,-1.9575,-1.9575,-1.9574,0,-1.9167,-1.9206,-1.9233,-1.928,-1.9307,-1.9346,-1.9371,-1.9397,-1.9406,-1.9425,-1.9476,-1.9507,-1.9551,-1.9566,-1.9575,-1.9626,-1.9621,-1.9618,-1.9604,-1.9639,-1.9656,-1.9664,-1.9576,-1.9576,-1.9575,-1.9575,0,0,-1.9208,-1.9266,-1.9276,-1.9298,-1.9342,-1.9372,-1.9413,-1.9455,-1.9476,-1.951,-1.9545,-1.9599,-1.9596,-1.9621,-1.9633,-1.966,-1.9699,-1.9653,-1.9654,-1.966,-1.9759,-1.9761,-1.9769,-1.9702,-1.9703,-1.9705,-1.9756,0,-1.9255,-1.9326,-1.9344,-1.9405,-1.9442,-1.9451,-1.9487,-1.9518,-1.9537,-1.9571,-1.9592,-1.9631,-1.9624,-1.9639,-1.9665,-1.9689,-1.9719,-1.9686,-1.9734,-1.9736,-1.9724,-1.9778,-1.9781,-1.9827,-1.9763,-1.9764,-1.9765,0,-1.9318,-1.9353,-1.9418,-1.9458,-1.9474,-1.9505,-1.9546,-1.9578,-1.9614,-1.9627,-1.9655,-1.9665,-1.9707,-1.9692,-1.9751,-1.9727,-1.9749,-1.9763,-1.9766,-1.977,-1.9752,-1.9784,-1.9842,-1.9849,-1.9776,-1.9775,-1.9774,0,-1.9342,-1.9406,-1.9453,-1.9471,-1.9519,-1.9541,-1.9562,-1.9597,-1.9622,-1.9657,-1.9674,-1.9714,-1.9736,-1.9767,-1.9788,-1.9774,-1.9845,-1.9831,-1.9857,-1.9856,-1.9871,-1.987,-1.9933,-1.9885,-1.9885,-1.9885,-1.9884,0,-1.9391,-1.9431,-1.9464,-1.9493,-1.9538,-1.9559,-1.9602,-1.9624,-1.9655,-1.9688,-1.9699,-1.973,-1.9756,-1.9791,-1.9807,-1.9854,-1.9864,-1.9875,-1.9879,-1.9874,-1.9873,-1.9888,-1.9885,-1.9887,-1.9886,-1.9886,-1.9885,0,-1.9425,-1.945,-1.9502,-1.9543,-1.9555,-1.9586,-1.9621,-1.965,-1.967,-1.9712,-1.9723,-1.9755,-1.9797,-1.982,-1.9873,-1.9884,-1.9936,-1.9938,-1.9924,-1.9926,-1.995,-1.9947,-2.0025,-2.0037,-1.9981,-1.9981,-1.9982,0,-1.9455,-1.9486,-1.9531,-1.9554,-1.9576,-1.9613,-1.9638,-1.966,-1.9686,-1.973,-1.9754,-1.9796,-1.9831,-1.9897,-1.9925,-1.9965,-1.9969,-1.9993,-1.9975,-1.9969,-1.9969,-1.9967,-1.997,-1.9996,-1.9997,-1.9997,-1.9998,0,-1.9506,-1.9517,-1.9553,-1.9593,-1.9623,-1.9656,-1.9689,-1.9707,-1.9735,-1.9764,-1.9807,-1.9834,-1.9888,-1.993,-1.9973,-1.9995,-2.0001,-2.0003,-2.0011,-2.0007,-1.9997,-2.0003,-1.9932,-2.0001,-2.0001,-2.0001,-2.0,-2.0,-1.9539,-1.9567,-1.9603,-1.9643,-1.967,-1.9701,-1.973,-1.9754,-1.979,-1.9835,-1.9846,-1.9891,-1.9927,-1.9985,-2.0009,-2.0045,-2.004,-2.0052,-2.0055,-2.0057,-2.0058,-1.9991,-2.0052,-2.0052,-2.0052,-2.0052,-2.0052,0,-1.9591,-1.9615,-1.9651,-1.9697,-1.9728,-1.9732,-1.9768,-1.9795,-1.9834,-1.9867,-1.9902,-1.9951,-1.9992,-2.0023,-2.0065,-2.0088,-2.0092,-2.0099,-2.0097,-2.0102,-2.006,-2.0048,-2.0095,-2.0095,-2.0095,-2.0095,-2.0095,-2.0095,-1.9621,-1.9669,-1.9684,-1.9745,-1.9768,-1.9813,-1.9833,-1.9862,-1.9888,-1.9943,-1.9977,-1.9997,-2.003,-2.0074,-2.0112,-2.012,-2.0135,-2.0141,-2.015,-2.011,-2.0105,-2.0101,-2.009,-2.0144,-2.0145,-2.0189,-2.019,-2.019]},{"header":{"parameterUnit":"m.s-1","parameterCategory":1,"la1":30.2991,"la2":30.254,"lo1":-89.0895,"lo2":-89.0444,"dy":0.0017,"dx":0.0017,"nx":28,"ny":28,"refTime":"2024-05-21T21:00:00:Z","depth":0,"parameterNumber":3,"parameterNumberName":"V-component_of_WINDS"},"data":[0,0,0,0,0,0,0,0,0,0,0,0,0,0,0,0,0,0,0,0,0,0,0,0,0,0,0,0,0,0,0,0,0,0,0,0,0,0,0,0,0,0,0,0,0,0,0,0,0,0,0,0,0,0,0,0,0,0,4.4189,4.419,0,4.421,4.421,4.421,4.4134,4.4132,4.4129,4.4127,4.4146,4.4149,4.4152,0,0,0,0,0,0,0,0,0,0,0,0,0,4.4082,4.4085,4.4189,4.419,4.419,4.421,4.421,4.421,4.4134,4.4131,4.4129,4.4126,4.4146,4.4149,4.4152,0,0,0,0,0,0,0,0,0,0,0,0,0,4.4118,4.4086,4.4189,4.4154,4.4152,4.421,4.421,4.421,4.4135,4.4131,4.4128,4.4125,4.4145,4.4148,4.4152,4.4244,0,0,4.4164,4.4166,0,0,0,0,0,0,0,0,4.4116,4.4122,4.4159,4.4157,4.4154,4.4166,4.4179,4.4222,4.4136,4.4141,4.4127,4.4123,4.4156,4.4158,4.417,4.4245,4.4246,4.4165,4.4167,4.4169,4.417,0,0,0,0,0,0,0,4.4114,4.4121,4.4197,4.416,4.4157,4.4137,4.4138,4.4187,4.4167,4.414,4.4135,4.4138,4.4153,4.4166,4.4169,4.4246,4.4165,4.4168,4.417,4.4172,4.4396,4.44,0,0,0,0,0,0,4.4116,4.412,4.4197,4.4198,4.4126,4.4142,4.4143,4.4165,4.4166,4.4163,4.4141,4.4135,4.4161,4.4165,4.417,4.4276,4.4169,4.4172,4.4175,4.4393,4.4397,4.4401,0,0,0,0,0,0,4.4114,4.4124,4.4196,4.4157,4.4165,4.4147,4.4173,4.4168,4.418,4.4167,4.4163,4.4158,4.4158,4.4164,4.4226,4.4276,4.4174,4.4178,4.4389,4.4394,4.4399,4.4491,0,0,0,0,0,0,4.4112,4.4124,4.416,4.4159,4.4167,4.4253,4.4176,4.417,4.4187,4.4179,4.4182,4.4179,4.4156,4.4221,4.423,4.4279,4.4181,4.4384,4.4391,4.4397,4.4483,4.4498,4.4512,0,0,0,0,0,4.4108,4.4185,4.4162,4.4171,4.4212,4.4256,4.4261,4.4234,4.4192,4.4226,4.4218,4.4179,4.4269,4.4228,4.4237,4.4289,4.4381,4.4389,4.4397,4.4477,4.4495,4.4511,0,0,0,0,0,0,4.4192,4.4184,4.4158,4.4237,4.4248,4.4243,4.4286,4.4255,4.4277,4.4269,4.4233,4.4235,4.4302,4.4302,4.4256,4.4377,4.4317,4.4328,4.4375,4.4392,4.4406,4.4405,4.4184,0,0,0,0,0,4.422,4.4257,4.4248,4.4318,4.4325,4.4305,4.4323,4.4301,4.4311,4.4315,4.431,4.4321,4.4351,4.4372,4.4399,4.4483,4.4481,4.4523,4.4537,4.4549,4.4558,4.46,4.4618,4.4428,4.4428,4.4427,0,0,4.4277,4.4277,4.4303,4.4335,4.434,4.4379,4.4309,4.4353,4.4381,4.4321,4.4379,4.4376,4.4385,4.4458,4.4489,4.4459,4.461,4.4559,4.4569,4.4571,4.461,4.4628,4.4644,4.4433,4.4432,4.4431,0,0,4.4401,4.4406,4.4464,4.447,4.448,4.4466,4.448,4.448,4.4476,4.4533,4.4488,4.452,4.4574,4.4582,4.4593,4.4718,4.4682,4.4728,4.4802,4.4844,4.4858,4.4872,4.4915,4.4931,4.4737,4.4737,4.4737,0,4.4471,4.4528,4.4497,4.4544,4.4558,4.4506,4.4564,4.4572,4.459,4.46,4.4566,4.4631,4.4634,4.4706,4.4737,4.4748,4.4761,4.4727,4.4859,4.4872,4.4883,4.4924,4.4941,4.4743,4.4742,4.4741,4.4741,0,4.4612,4.4652,4.4698,4.4716,4.4735,4.4787,4.4764,4.4787,4.4763,4.4753,4.4811,4.4812,4.4837,4.4853,4.4831,4.4922,4.4903,4.4865,4.4804,4.4907,4.4945,4.496,4.475,4.4748,4.4747,4.4745,0,0,4.479,4.479,4.4807,4.4813,4.4819,4.4849,4.4898,4.4923,4.4943,4.4957,4.4996,4.5042,4.5005,4.5018,4.4995,4.5032,4.5129,4.4989,4.4988,4.5014,4.5228,4.5256,4.5275,4.5106,4.5108,4.5111,4.5227,0,4.491,4.4994,4.4967,4.5051,4.5087,4.5037,4.5079,4.5086,4.5078,4.5105,4.5095,4.5128,4.5079,4.5085,4.512,4.511,4.5171,4.5101,4.514,4.5142,4.5139,4.5295,4.5325,4.5434,4.5242,4.5244,4.5246,0,4.5062,4.5081,4.5169,4.5166,4.518,4.5219,4.5239,4.5267,4.5273,4.5264,4.5278,4.5247,4.5293,4.5233,4.5296,4.5249,4.5263,4.5261,4.5264,4.5266,4.52,4.5299,4.5469,4.5485,4.5269,4.5267,4.5265,0,4.5181,4.5228,4.5286,4.5294,4.5293,4.5321,4.5322,4.5326,4.5342,4.5359,4.5369,4.5392,4.5404,4.5422,4.5398,4.5357,4.5464,4.5402,4.5456,4.5457,4.548,4.5479,4.5653,4.5492,4.5492,4.5491,4.5491,0,4.5317,4.5372,4.5339,4.5375,4.5435,4.5403,4.5463,4.5458,4.5461,4.5494,4.5453,4.5485,4.5451,4.548,4.5461,4.5515,4.5521,4.5514,4.5508,4.5517,4.5518,4.5525,4.5517,4.5496,4.5495,4.5494,4.5493,0,4.546,4.544,4.55,4.5494,4.5494,4.5538,4.5532,4.5564,4.5552,4.5594,4.5602,4.5583,4.5614,4.5592,4.5623,4.561,4.5681,4.5665,4.5678,4.5673,4.5728,4.5723,4.5913,4.5935,4.5761,4.5762,4.5764,0,4.5547,4.5588,4.5587,4.5606,4.5609,4.5641,4.5657,4.5627,4.5645,4.5655,4.5686,4.5713,4.5734,4.5785,4.5774,4.5797,4.578,4.5845,4.5784,4.5791,4.578,4.5777,4.578,4.5857,4.586,4.5861,4.5863,0,4.5705,4.5693,4.5718,4.5739,4.5759,4.5774,4.5786,4.5804,4.5774,4.5796,4.5827,4.5843,4.5874,4.5901,4.592,4.592,4.5886,4.5882,4.5896,4.5905,4.591,4.5906,4.5711,4.5878,4.5876,4.5875,4.5874,4.5874,4.5822,4.5855,4.5858,4.5887,4.5893,4.5904,4.5934,4.5925,4.595,4.5973,4.5954,4.5991,4.5995,4.6016,4.602,4.6048,4.6021,4.6041,4.6046,4.6051,4.6058,4.5907,4.6052,4.6051,4.6051,4.605,4.605,0,4.5975,4.5975,4.6002,4.6019,4.6041,4.6007,4.6018,4.6039,4.6072,4.6078,4.6099,4.6134,4.616,4.615,4.6173,4.6197,4.6182,4.6204,4.6201,4.6201,4.6082,4.6067,4.6215,4.6215,4.6215,4.6215,4.6215,4.6215,4.6058,4.6112,4.61,4.6156,4.6155,4.6191,4.6199,4.6209,4.6214,4.6255,4.6276,4.627,4.6269,4.6292,4.6313,4.631,4.6319,4.6347,4.6338,4.6226,4.621,4.6194,4.618,4.635,4.635,4.6454,4.6455,4.6456]}]]